[Iaude] MPEC Y05: 2023 XW14 [a=1.47,e=0.62,i=24.4,H=21.2,PHA]

mpec at marsden.cfa.harvard.edu mpec at marsden.cfa.harvard.edu
Sat Dec 16 06:38:14 EST 2023


M.P.E.C. 2023-Y05                             Issued 2023 December 16, 11:36 UT

     The Minor Planet Electronic Circulars contain information on unusual
         minor planets, routine data on comets and natural satellites,
         and occasional editorial announcements.  They are published
    on behalf of Division F of the International Astronomical Union by the
          Minor Planet Center, Smithsonian Astrophysical Observatory,
                          Cambridge, MA 02138, U.S.A.
			  
             Prepared using the Tamkin Foundation Computer Network

                              MPC at CFA.HARVARD.EDU
            URL https://www.minorplanetcenter.net/    ISSN 1523-6714

                                   2023 XW14                                    


Observations:
     K23X14W* C2023 12 11.49669109 52 50.070+40 12 11.88         21.60GVEY005V00
     K23X14W  C2023 12 11.50192709 52 50.812+40 12 09.18         21.91GVEY005V00
     K23X14W  C2023 12 11.50717209 52 51.586+40 12 06.55         21.56GVEY005V00
     K23X14W  C2023 12 11.51242009 52 52.345+40 12 04.07         21.95GVEY005V00
     K23X14W mC2023 12 11.54229309 52 56.622+40 11 48.26         22.28GVEY005V00
     K23X14W mC2023 12 11.54325009 52 56.752+40 11 48.41         22.35GVEY005V00
     K23X14W mC2023 12 11.54421309 52 56.899+40 11 47.76         22.07GVEY005V00
     K23X14W mC2023 12 11.54517109 52 57.043+40 11 47.18         22.54GVEY005V00
     K23X14W KC2023 12 13.34648609 57 35.341+39 55 44.36         21.76GVEY005V06
     K23X14W KC2023 12 13.35018109 57 35.917+39 55 42.74         21.25GVEY005V06
     K23X14W KC2023 12 13.35387609 57 36.464+39 55 40.51         21.89GVEY005V06
     K23X14W KC2023 12 13.35757109 57 37.015+39 55 38.82         21.56GVEY005V06
     K23X14W KC2023 12 14.38940810 00 19.76 +39 45 31.9          21.5 GVEY005H21
     K23X14W KC2023 12 14.39229710 00 20.22 +39 45 30.3          21.4 GVEY005H21
     K23X14W KC2023 12 14.39518510 00 20.65 +39 45 28.5          21.5 GVEY005H21
     K23X14W KC2023 12 14.40434710 00 22.568+39 45 23.65         20.76GVEY005I52
     K23X14W KC2023 12 14.40898610 00 23.245+39 45 21.56         20.92GVEY005I52
     K23X14W KC2023 12 14.41362010 00 23.951+39 45 18.36         21.56GVEY005I52
     K23X14W KC2023 12 14.41825710 00 24.689+39 45 15.84         21.73GVEY005I52
     K23X14W  C2023 12 16.45116910 05 58.336+39 22 50.82         21.5 GVEY005H01
     K23X14W  C2023 12 16.45490910 05 58.930+39 22 48.29         21.5 GVEY005H01
     K23X14W  C2023 12 16.46760310 06 00.972+39 22 39.31         21.7 GVEY005H01
     K23X14W  C2023 12 16.47285610 06 01.814+39 22 35.55         22.0 GVEY005H01

Observer details:
H01 Magdalena Ridge Observatory, Socorro.  Observers W. H. Ryan, E. V. Ryan.
    Measurer W. H. Ryan.  2.4-m f/8.9 Ritchey-Chretien + CCD.
H21 Astronomical Research Observatory, Westfield.  Observer R. Holmes.
    Measurers T. Linder, R. Holmes, L. Horn.  1.3-m f/4.0 astrograph + CCD.
I52 Steward Observatory, Mt. Lemmon Station.  Observer K. W. Wierzchos.
    Measurers E. C. Beshore, D. Fay, J. B. Fazekas, D. C. Fuls, A. R. Gibbs,
    A. D. Grauer, H. Groeller, J. K. Hogan, R. A. Kowalski, S. M. Larson, G.
    J. Leonard, D. Rankin, R. L. Seaman, F. C. Shelly, K. W. Wierzchos.  1.0-m
    prime focus + CCD.
V00 Kitt Peak-Bok.  Observer C. Lejoly.  Measurers M. J. Brucker, C. E.
    Woodward, D. Fay, J. B. Fazekas, D. C. Fuls, A. R. Gibbs, H. Groeller, J.
    K. Hogan, R. A. Kowalski, S. M. Larson, C. Lejoly, G. J. Leonard, R. A.
    Mastaler, R. S. McMillan, D. Rankin, R. L. Seaman, A. Serrano, F. C.
    Shelly, K. W. Wierzchos.  2.25-m reflector + 4x4K mosaic CCD.
V06 Catalina Sky Survey-Kuiper.  Observer K. W. Wierzchos.  Measurers E. C.
    Beshore, D. Fay, J. B. Fazekas, D. C. Fuls, A. R. Gibbs, A. D. Grauer, H.
    Groeller, J. K. Hogan, R. A. Kowalski, S. M. Larson, G. J. Leonard, D.
    Rankin, R. L. Seaman, F. C. Shelly, K. W. Wierzchos.  1.55-m reflector +
    1K CCD.

Orbital elements:
2023 XW14                                           PHA, Earth MOID = 0.0086 AU
Epoch 2023 Sept. 13.0 TT = JDT 2460200.5                MPC                     
M 264.22144              (2000.0)            P               Q                  
n   0.55321418     Peri.  276.33756     -0.72846512     +0.58444736             
a   1.4696272      Node   300.03067     -0.34011017     -0.76142701             
e   0.6211280      Incl.   24.38451     -0.59469626     -0.28044643             
P   1.78           H   21.25          G   0.15           U   9                  
Residuals in seconds of arc
231211 V00  0.1-  0.1+    231213 V06  0.1-  0.2-    231214 I52  0.2-  0.5+
231211 V00  0.2-  0.0     231213 V06  0.1+  0.1+    231214 I52  0.2-  0.0
231211 V00  0.1+  0.0     231213 V06  0.1-  0.2-    231214 I52  0.1+  0.2+
231211 V00  0.2+  0.2+    231213 V06  0.2-  0.0     231216 H01  0.0   0.1-
231211 V00  0.0   0.4-    231214 H21  0.1-  0.1-    231216 H01  0.1-  0.0
231211 V00  0.1-  0.2+    231214 H21  0.1+  0.1+    231216 H01  0.0   0.0
231211 V00  0.0   0.0     231214 H21  0.0   0.0     231216 H01  0.0   0.0
231211 V00  0.1+  0.0     231214 I52  0.2+  0.1-

Ephemeris:
2023 XW14                a,e,i = 1.47, 0.62, 24                  q = 0.5568
Date    TT    R. A. (2000) Decl.     Delta      r    Elong.  Phase     V
2023 11 16    08 56 12.6 +42 03 12   0.9524  1.5616   107.1    37.3    23.6
...
2023 12 01    09 28 15.2 +41 16 03   0.7056  1.4319   114.6    38.8    22.8
...
2023 12 09    09 46 40.8 +40 31 16   0.5785  1.3579   118.2    39.7    22.3
...
2023 12 15    10 01 57.8 +39 39 11   0.4856  1.3001   120.5    40.7    21.9
2023 12 16    10 04 42.3 +39 28 07   0.4704  1.2903   120.9    40.9    21.8
2023 12 17    10 07 31.2 +39 16 09   0.4552  1.2804   121.2    41.1    21.7
...
2023 12 23    10 26 27.1 +37 39 17   0.3658  1.2201   122.6    42.8    21.2
...
2023 12 31    11 01 38.3 +33 20 14   0.2517  1.1368   121.9    47.2    20.3
...
2024 01 15    14 05 23.4 -11 11 06   0.09843 0.9730    80.9    93.3    19.5

A. U. Tomatic                (C) Copyright 2023 MPC           M.P.E.C. 2023-Y05





More information about the Iaude mailing list